Temp
55 56 56 56 55 55 55 54 55 56 56 57 59 59 58 58 58 57 53 65 65 65 65 66 66 66 66 67 67 67 67 66 66 66 67 67 66 66 66 66 66 66 67
56 56 56 56 55 55 55 55 54 54 55 56 57 59 58 58 58 58 56 54 65 65 65 66 66 66 66 66 66 66 66 66 66 66 66 66 66 66 66 66 66 66 67
58 58 56 55 55 56 56 55 55 55 53 56 55 57 58 58 57 58 57 56 57 65 65 66 66 66 66 66 66 66 66 66 66 66 66 66 66 67 66 66 66 66 66
60 57 55 55 56 55 54 53 52 52 52 52 52 54 55 56 57 58 58 56 55 57 61 65 65 66 66 66 66 66 66 66 66 66 65 66 66 66 66 66 66 66 66
61 57 55 55 57 54 53 53 53 51 50 51 53 54 54 54 55 61 57 57 55 56 54 62 65 65 65 66 66 66 66 66 66 65 65 65 66 66 66 66 66 65 65
60 57 56 56 56 54 53 52 51 52 51 50 58 57 52 54 53 53 55 59 55 56 55 55 53 56 64 65 66 66 66 66 66 66 65 65 66 66 66 66 66 65 65
60 57 55 56 55 54 53 53 52 51 49 51 48 48 52 55 56 55 53 53 55 56 53 53 52 51 54 65 65 65 66 66 67 66 66 65 65 66 66 66 66 66 66
60 58 56 55 55 53 53 53 52 49 49 50 47 45 43 49 51 55 53 54 53 54 54 55 53 53 52 51 55 64 64 65 66 66 66 66 65 65 66 66 66 65 66
60 58 57 55 55 54 52 52 51 50 47 49 50 47 41 42 45 50 51 51 52 51 51 53 55 55 53 51 57 59 63 64 64 65 65 65 65 65 66 66 66 66 65
60 59 58 57 56 54 53 52 55 51 49 46 48 54 49 47 43 41 48 50 51 52 51 50 52 54 54 52 56 58 60 63 64 64 64 65 65 65 65 66 66 66 65
60 60 59 58 56 55 55 54 54 52 50 48 47 48 47 47 46 44 44 44 48 49 50 51 51 50 53 53 51 54 62 63 63 63 63 63 64 65 65 65 66 66 65
57 59 59 57 57 56 55 55 54 53 51 50 49 49 50 46 44 43 44 47 46 49 50 52 51 51 50 50 56 60 62 62 63 63 62 62 62 63 64 64 65 65 66
55 56 57 56 56 55 55 55 54 53 52 50 50 52 51 52 51 48 45 48 44 47 49 50 49 50 54 50 51 58 60 62 62 62 62 61 61 62 62 63 63 64 65
57 59 58 57 57 57 55 54 53 52 52 51 51 52 52 52 50 51 51 47 46 47 45 50 50 50 51 51 53 59 55 61 61 61 61 60 60 61 61 61 62 62 62
60 59 59 58 57 56 56 54 52 52 52 51 51 50 52 54 50 51 50 48 48 43 45 48 47 50 52 51 54 54 51 56 60 60 59 59 60 60 61 61 61 61 61
58 58 57 57 56 56 55 54 52 52 52 51 53 51 52 53 51 52 50 49 48 48 44 46 48 49 50 55 53 55 52 56 59 59 58 58 59 59 60 60 60 60 60
59 58 58 56 56 55 55 54 52 52 52 52 52 51 52 51 52 49 48 51 50 49 46 51 52 51 49 49 51 51 51 50 49 59 59 58 58 58 58 58 58 58 59
60 59 59 58 57 56 55 54 53 55 52 51 52 51 53 56 51 52 50 49 50 51 49 47 51 48 48 49 53 50 53 55 52 57 59 59 58 56 56 57 57 57 57
61 60 59 57 57 57 56 55 54 54 53 53 53 52 54 51 51 51 50 51 51 53 51 48 48 47 46 47 49 50 46 46 53 57 58 59 58 56 55 55 56 56 55
61 59 59 59 58 57 57 56 55 53 53 54 53 53 53 52 52 50 50 51 52 48 48 47 47 47 44 45 45 44 43 45 47 52 54 55 55 54 54 54 54 55 54
60 59 59 58 57 57 58 54 54 52 51 51 52 54 54 54 58 58 55 50 49 45 45 44 44 45 41 40 40 41 43 45 43 45 45 46 47 48 49 52 52 52 52
58 58 57 57 55 58 59 58 55 51 51 50 50 52 52 56 56 60 60 59 56 47 46 42 44 42 44 42 41 44 43 41 40 45 44 43 47 45 47 47 50 51 51
57 56 56 56 54 54 59 60 58 51 49 48 48 50 52 57 55 52 56 59 58 58 57 50 46 46 45 47 45 36 38 40 42 44 42 40 43 42 46 49 50 51 51
55 55 54 54 53 55 59 59 58 50 48 48 49 50 49 50 51 52 50 48 48 48 49 51 50 49 51 51 48 47 45 41 42 43 42 38 42 40 44 45 49 49 50
54 53 54 53 51 52 57 57 54 48 49 49 51 51 51 50 55 57 49 46 45 46 53 56 56 55 56 55 53 48 44 41 38 36 40 39 39 38 40 41 45 48 49
54 54 53 52 54 52 56 56 52 48 46 48 49 51 54 53 56 55 47 44 42 43 44 45 45 48 50 48 52 48 46 43 40 35 39 37 37 37 35 40 43 45 46
MSLP
1024.59 1024.50 1024.44 1024.48 1024.53 1024.43 1024.48 1024.50 1024.39 1024.27 1024.14 1023.94 1023.67 1023.57 1023.50 1023.43 1023.38 1023.36 1023.51 1023.47 1023.56 1023.62 1023.63 1023.49 1023.36 1023.27 1023.26 1023.12 1022.92 1022.79 1022.70 1022.66 1022.56 1022.33 1022.19 1022.09 1022.07 1021.94 1021.83 1021.75 1021.51 1021.43 1021.34
1024.31 1024.31 1024.24 1024.23 1024.26 1024.26 1024.26 1024.33 1024.39 1024.29 1024.24 1023.99 1023.78 1023.57 1023.38 1023.28 1023.25 1023.18 1023.22 1023.33 1023.26 1023.34 1023.36 1023.36 1023.30 1023.19 1023.12 1022.98 1022.86 1022.78 1022.64 1022.59 1022.53 1022.29 1022.17 1022.00 1021.80 1021.73 1021.67 1021.59 1021.46 1021.42 1021.23
1023.81 1023.86 1023.99 1024.09 1024.07 1024.08 1024.12 1024.25 1024.31 1024.15 1024.14 1023.92 1023.75 1023.37 1023.16 1022.95 1022.94 1022.84 1022.81 1022.81 1022.90 1022.90 1022.96 1022.96 1022.97 1022.90 1022.81 1022.75 1022.66 1022.49 1022.44 1022.36 1022.31 1022.25 1022.14 1021.87 1021.73 1021.56 1021.52 1021.40 1021.32 1021.23 1021.16
1023.31 1023.52 1023.78 1023.88 1023.80 1023.90 1024.07 1024.31 1024.35 1024.31 1024.24 1024.02 1023.87 1023.42 1023.07 1022.66 1022.43 1022.34 1022.27 1022.40 1022.52 1022.59 1022.62 1022.57 1022.55 1022.44 1022.35 1022.27 1022.14 1022.11 1022.06 1022.02 1021.93 1021.90 1021.87 1021.65 1021.56 1021.39 1021.29 1021.24 1021.08 1021.06 1020.98
1022.87 1023.25 1023.51 1023.56 1023.53 1023.74 1023.85 1024.02 1024.13 1024.17 1024.04 1023.93 1023.73 1023.32 1022.91 1022.55 1022.24 1021.85 1021.80 1021.81 1021.91 1021.95 1022.18 1022.15 1022.07 1022.01 1021.99 1021.90 1021.83 1021.75 1021.58 1021.53 1021.60 1021.49 1021.53 1021.49 1021.30 1021.21 1021.07 1020.92 1020.87 1020.79 1020.81
1022.57 1022.88 1023.14 1023.29 1023.31 1023.51 1023.60 1023.63 1023.77 1023.64 1023.63 1023.67 1023.51 1023.17 1022.67 1022.18 1021.66 1021.52 1021.36 1021.17 1021.32 1021.35 1021.38 1021.52 1021.75 1021.74 1021.66 1021.56 1021.43 1021.34 1021.23 1021.14 1021.14 1021.19 1021.11 1021.05 1020.90 1020.83 1020.82 1020.68 1020.55 1020.50 1020.46
1022.23 1022.49 1022.81 1022.84 1022.82 1023.13 1023.22 1023.31 1023.37 1023.45 1023.58 1023.46 1023.58 1022.99 1022.26 1021.28 1021.04 1020.89 1020.67 1020.72 1020.62 1020.59 1020.65 1020.85 1021.06 1021.37 1021.47 1021.15 1021.08 1021.09 1020.95 1020.77 1020.65 1020.63 1020.68 1020.69 1020.55 1020.35 1020.22 1020.24 1020.19 1020.14 1020.03
1021.74 1021.98 1022.17 1022.37 1022.49 1022.79 1022.82 1022.92 1023.08 1023.34 1023.26 1023.21 1023.56 1023.52 1022.58 1021.01 1020.46 1020.21 1020.18 1020.38 1020.53 1020.49 1020.49 1020.44 1020.72 1020.91 1020.96 1020.93 1020.86 1020.67 1020.75 1020.71 1020.39 1020.31 1020.31 1020.23 1020.32 1020.14 1019.89 1019.75 1019.66 1019.88 1019.68
1021.10 1021.28 1021.47 1021.71 1021.89 1022.06 1022.16 1022.30 1022.39 1022.75 1023.17 1023.13 1023.05 1023.39 1023.04 1022.36 1021.42 1020.15 1019.98 1019.93 1019.95 1020.04 1020.12 1020.08 1019.99 1020.15 1020.37 1020.47 1020.42 1020.23 1020.11 1020.18 1020.26 1020.12 1019.99 1019.71 1019.64 1019.72 1019.59 1019.43 1019.25 1019.15 1019.24
1020.49 1020.60 1020.79 1021.04 1021.24 1021.35 1021.46 1021.32 1021.56 1021.96 1022.62 1022.84 1022.88 1022.42 1022.09 1022.13 1022.26 1021.61 1020.34 1020.08 1019.81 1019.74 1019.68 1019.66 1019.54 1019.42 1019.47 1019.62 1019.67 1019.58 1019.63 1019.61 1019.61 1019.68 1019.70 1019.55 1019.31 1019.09 1018.99 1018.91 1018.72 1018.67 1018.74
1019.71 1019.80 1019.95 1020.15 1020.40 1020.66 1020.72 1020.90 1020.96 1021.33 1021.65 1021.98 1022.22 1022.23 1022.00 1021.78 1021.79 1022.17 1021.27 1020.35 1019.93 1019.52 1019.35 1019.26 1019.02 1018.94 1018.85 1019.01 1019.14 1019.18 1019.14 1019.03 1018.99 1019.04 1019.08 1019.12 1018.94 1018.90 1018.81 1018.52 1018.22 1018.21 1018.34
1019.36 1019.23 1019.30 1019.49 1019.61 1019.77 1020.02 1020.20 1020.39 1020.58 1020.77 1020.94 1021.11 1021.30 1021.48 1021.50 1021.42 1021.58 1021.44 1020.43 1020.07 1019.21 1018.84 1018.63 1018.49 1018.43 1018.29 1018.19 1018.12 1018.01 1017.99 1017.95 1017.97 1018.05 1018.27 1018.33 1018.30 1018.17 1018.20 1018.33 1017.98 1017.75 1017.61
1018.84 1018.70 1018.74 1018.98 1019.14 1019.20 1019.35 1019.51 1019.84 1019.92 1020.11 1020.29 1020.25 1020.34 1020.41 1020.51 1020.58 1020.62 1020.67 1020.05 1019.72 1018.83 1018.43 1017.77 1017.68 1017.53 1017.42 1017.39 1017.30 1017.16 1017.18 1017.25 1017.34 1017.46 1017.47 1017.58 1017.61 1017.69 1017.52 1017.44 1017.66 1017.57 1017.23
1018.19 1018.01 1018.10 1018.18 1018.30 1018.49 1018.65 1018.86 1019.23 1019.31 1019.44 1019.40 1019.52 1019.59 1019.75 1019.69 1019.84 1019.77 1019.61 1019.64 1019.13 1018.96 1018.41 1017.66 1017.16 1016.85 1016.52 1016.41 1016.37 1016.37 1016.33 1016.21 1016.52 1016.69 1016.69 1016.83 1016.89 1016.86 1016.99 1016.89 1016.85 1016.97 1017.05
1017.69 1017.71 1017.64 1017.88 1017.86 1017.99 1018.10 1018.37 1018.56 1018.62 1018.78 1018.78 1018.79 1018.96 1018.90 1018.71 1018.73 1018.71 1018.80 1019.06 1019.10 1018.38 1017.61 1016.83 1016.89 1016.07 1015.86 1015.77 1015.67 1015.77 1015.89 1015.95 1015.93 1016.04 1016.16 1016.11 1016.27 1016.22 1016.23 1016.27 1016.28 1016.31 1016.32
1017.19 1017.23 1017.34 1017.42 1017.50 1017.64 1017.74 1018.01 1017.84 1017.91 1018.08 1018.05 1018.13 1018.19 1018.09 1017.98 1017.89 1017.89 1017.88 1018.02 1018.23 1018.14 1017.24 1016.49 1016.28 1015.83 1015.70 1015.45 1015.42 1015.33 1015.30 1015.22 1015.32 1015.43 1015.53 1015.50 1015.41 1015.60 1015.69 1015.65 1015.61 1015.63 1015.67
1016.60 1016.67 1016.73 1016.83 1017.04 1017.14 1017.20 1017.20 1017.29 1017.33 1017.37 1017.40 1017.41 1017.42 1017.17 1017.00 1016.97 1017.02 1017.07 1017.19 1017.29 1017.21 1016.70 1015.52 1015.80 1015.70 1015.67 1015.49 1015.25 1015.03 1014.91 1014.90 1014.86 1014.73 1014.89 1015.04 1014.93 1014.86 1014.92 1015.07 1015.18 1015.12 1015.02
1015.95 1016.06 1016.16 1016.31 1016.41 1016.47 1016.52 1016.59 1016.60 1016.59 1016.81 1016.88 1016.68 1016.46 1016.19 1016.25 1016.14 1016.17 1016.22 1016.25 1016.17 1016.10 1016.22 1015.46 1015.39 1015.39 1015.23 1014.92 1014.76 1014.51 1014.18 1014.15 1014.29 1014.18 1014.17 1014.25 1014.27 1014.41 1014.43 1014.17 1014.25 1014.33 1014.36
1015.45 1015.50 1015.58 1015.66 1015.75 1015.85 1015.89 1015.94 1015.93 1015.94 1015.89 1015.77 1015.67 1015.74 1015.55 1015.72 1015.66 1015.52 1015.57 1015.51 1015.34 1015.36 1015.35 1015.11 1014.70 1014.80 1014.56 1014.47 1014.27 1013.99 1013.69 1013.56 1013.43 1013.41 1013.39 1013.32 1013.20 1013.41 1013.50 1013.38 1013.22 1013.25 1013.40
1015.07 1015.04 1014.98 1015.09 1015.15 1015.21 1015.27 1015.27 1015.32 1015.41 1015.38 1015.25 1015.12 1014.98 1014.78 1014.79 1014.63 1014.55 1014.47 1014.39 1014.45 1014.47 1014.51 1014.48 1014.31 1014.14 1014.10 1014.00 1013.93 1013.89 1013.54 1013.32 1013.13 1013.01 1013.02 1013.03 1013.03 1012.91 1012.68 1012.49 1012.49 1012.33 1012.40
1014.67 1014.70 1014.66 1014.62 1014.62 1014.68 1014.74 1014.93 1015.00 1014.97 1014.97 1014.99 1014.71 1014.47 1014.16 1013.95 1013.88 1013.76 1013.78 1013.86 1013.89 1013.95 1013.86 1013.89 1013.71 1013.40 1013.53 1013.58 1013.44 1013.24 1013.06 1012.89 1012.77 1012.77 1012.75 1012.66 1012.49 1012.28 1011.91 1011.73 1011.74 1011.71 1011.50
1014.35 1014.35 1014.29 1014.28 1014.32 1014.25 1014.26 1014.36 1014.45 1014.67 1014.74 1014.65 1014.55 1014.09 1013.84 1013.66 1013.42 1013.15 1012.94 1012.88 1012.91 1013.03 1013.22 1013.26 1013.22 1013.20 1012.95 1012.92 1012.56 1012.71 1012.66 1012.82 1012.66 1012.11 1012.09 1011.60 1011.59 1011.43 1011.26 1011.07 1010.97 1010.98 1010.99
1013.94 1014.05 1014.01 1013.98 1014.03 1014.04 1014.03 1014.04 1014.22 1014.38 1014.43 1014.35 1014.19 1013.84 1013.34 1012.86 1012.61 1012.48 1012.41 1012.24 1012.10 1012.28 1012.47 1012.42 1012.34 1012.17 1012.24 1011.81 1012.08 1011.91 1012.07 1012.06 1011.76 1011.43 1011.70 1011.03 1011.03 1010.67 1010.38 1010.18 1010.12 1010.12 1010.08
1013.67 1013.79 1013.79 1013.84 1013.85 1013.84 1013.79 1013.76 1013.95 1014.07 1014.08 1013.88 1013.68 1013.48 1012.99 1012.46 1012.15 1012.06 1011.87 1011.86 1012.10 1012.07 1011.90 1011.83 1011.59 1011.42 1011.27 1011.23 1011.17 1011.08 1011.16 1011.38 1011.18 1011.12 1011.18 1010.69 1010.38 1010.13 1009.91 1009.64 1009.48 1009.42 1009.43
1013.36 1013.47 1013.59 1013.77 1013.85 1013.55 1013.39 1013.46 1013.63 1013.77 1013.71 1013.47 1012.95 1012.54 1012.33 1012.04 1011.78 1011.71 1011.99 1012.11 1011.72 1011.48 1011.15 1010.90 1010.81 1010.57 1010.68 1010.50 1010.39 1010.40 1010.37 1010.66 1010.57 1010.52 1010.42 1010.40 1009.83 1009.59 1009.51 1009.08 1008.78 1008.59 1008.59
1012.93 1013.15 1013.35 1013.46 1013.26 1013.15 1013.04 1013.08 1013.40 1013.61 1013.53 1013.20 1012.78 1012.35 1011.76 1011.61 1011.70 1011.69 1011.72 1011.98 1011.95 1011.50 1011.16 1010.86 1010.51 1010.47 1010.24 1010.09 1009.93 1009.75 1009.59 1009.79 1009.76 1009.70 1009.75 1009.85 1009.34 1009.47 1009.08 1008.30 1008.06 1008.01 1008.00
Wind_Speed
3 3 3 3 3 2 2 3 3 4 5 6 5 5 5 5 5 3 2 9 7 6 7 7 6 5 5 7 7 5 5 6 5 6 6 5 5 6 6 8 8 6 5
3 4 4 3 3 3 3 2 3 3 4 5 6 6 6 5 5 4 3 5 11 9 9 9 8 7 7 6 7 8 7 5 7 7 7 7 4 5 6 6 6 7 8
6 5 4 3 4 3 2 2 5 4 4 4 6 6 5 6 4 6 5 4 6 13 13 12 12 11 10 10 9 9 8 9 9 8 8 7 7 7 5 6 7 6 8
6 5 3 3 3 2 2 2 3 4 4 4 4 5 5 5 6 7 6 5 5 5 11 14 14 14 13 12 12 11 11 10 10 9 9 10 9 8 8 8 9 6 8
7 5 4 4 5 3 4 4 4 4 3 4 5 5 5 5 6 5 6 6 7 6 4 13 17 16 15 15 15 14 14 13 12 12 11 12 10 11 10 9 8 8 8
7 5 4 5 4 3 4 4 5 4 4 4 4 6 6 6 6 6 6 5 5 7 7 7 4 6 17 17 17 16 15 15 14 14 14 13 12 13 12 12 9 9 9
7 7 5 6 5 5 6 6 4 5 3 3 3 4 6 10 11 8 5 5 6 6 7 7 5 4 6 17 18 17 17 17 16 16 16 15 15 14 13 12 11 12 10
7 6 7 6 6 4 6 6 5 3 3 4 3 2 5 6 3 5 5 5 7 5 6 7 7 7 6 5 8 18 18 18 18 17 17 17 16 16 14 15 11 14 13
8 8 8 6 7 6 5 6 6 7 4 3 6 4 3 4 3 4 5 5 6 5 5 6 7 7 7 6 10 11 18 19 19 19 19 19 18 18 18 16 16 15 13
8 8 8 7 7 5 6 6 6 6 5 5 2 6 5 4 2 6 4 3 6 6 7 5 6 6 7 6 10 13 16 19 20 20 20 20 20 19 18 19 17 17 15
8 8 8 8 7 5 6 7 7 6 5 5 5 3 4 5 5 6 8 5 3 4 5 6 6 5 7 6 5 8 18 19 21 21 21 21 21 21 20 20 20 19 17
5 7 8 7 7 7 7 7 7 8 7 6 5 6 6 4 4 5 7 8 7 6 5 7 7 6 6 6 9 15 18 19 21 22 21 22 22 21 20 21 20 20 19
4 7 7 7 6 7 7 6 6 7 7 5 7 7 6 8 5 4 4 8 6 4 4 5 5 6 7 6 7 14 16 19 20 22 23 22 22 22 21 20 20 21 21
5 6 7 7 8 7 7 6 5 5 6 6 9 7 6 6 5 6 8 6 10 7 3 9 4 6 7 6 10 17 11 20 20 22 23 23 23 23 22 21 20 20 21
4 6 6 6 6 7 7 6 5 6 7 6 7 6 7 8 5 6 5 5 7 10 9 6 5 7 7 6 9 8 7 13 19 20 22 23 24 24 23 22 21 21 21
6 7 7 6 6 6 6 7 6 6 7 6 6 7 8 7 7 7 6 5 5 9 12 3 5 4 4 6 7 9 8 15 18 19 20 21 24 24 24 23 22 22 22
7 7 7 7 7 7 7 7 7 7 8 7 7 8 10 8 8 5 5 6 8 8 13 11 7 5 5 6 6 5 6 6 6 19 20 21 21 24 25 24 24 23 23
7 7 7 7 7 7 7 8 8 7 8 8 9 9 12 7 9 9 6 8 8 9 9 16 11 5 7 6 8 7 8 6 6 13 19 22 21 21 24 24 24 25 25
5 5 6 7 7 7 7 7 7 7 8 8 8 9 11 7 10 8 7 9 9 8 9 9 10 5 5 4 6 6 5 6 6 12 19 21 20 22 24 26 25 24 23
5 5 6 6 6 7 7 7 7 7 7 7 7 8 8 8 10 8 7 9 8 7 7 8 9 8 4 5 4 5 5 4 7 6 12 17 19 21 24 23 24 23 22
5 5 5 5 5 5 4 6 7 7 7 7 8 8 9 9 15 15 8 6 5 4 5 5 6 6 3 3 5 4 6 6 4 4 5 6 8 8 8 16 19 22 21
5 5 6 6 6 4 7 9 8 6 7 7 9 9 7 10 11 16 17 19 14 6 7 4 5 6 8 4 4 5 6 3 6 5 6 9 7 8 8 8 16 20 21
4 5 5 5 6 5 8 7 7 4 6 6 7 8 8 7 9 6 11 14 13 13 16 11 12 12 11 11 3 3 5 6 9 6 6 8 4 8 8 9 19 20 20
4 4 5 5 5 4 8 5 5 4 6 7 8 9 9 8 7 6 5 5 6 6 7 7 11 12 11 10 6 7 7 6 7 5 4 6 4 8 8 7 18 21 20
3 3 3 5 5 6 7 4 1 4 5 7 7 7 7 7 8 8 4 6 6 6 7 14 15 13 13 14 14 7 6 5 5 4 5 4 4 5 6 8 9 21 20
3 3 4 5 8 6 2 5 2 2 5 5 6 6 8 6 8 6 3 4 6 6 6 6 5 7 10 10 17 10 7 8 6 2 5 5 3 3 3 5 7 7 7
Wind_Direction
265 279 243 217 228 235 248 267 287 282 293 297 311 289 263 271 241 227 163 200 215 248 274 284 286 294 308 309 313 316 311 321 325 335 331 325 338 346 340 337 348 358 330
227 235 243 224 227 231 232 271 272 294 291 295 296 299 290 273 278 257 220 208 222 234 251 264 270 270 274 282 294 302 303 287 301 311 305 309 326 329 338 326 323 331 336
214 234 227 247 225 237 238 286 281 277 276 282 274 273 273 258 256 259 237 212 207 228 238 244 254 259 265 273 274 275 281 281 283 292 301 293 301 307 304 305 318 308 310
211 230 252 254 241 208 206 269 276 287 284 278 282 279 281 272 252 243 238 223 212 199 234 240 245 251 255 260 262 265 266 268 269 273 286 286 291 290 292 306 310 306 315
212 206 223 240 235 210 206 220 252 236 261 282 283 282 282 274 267 261 245 231 219 212 206 225 239 244 248 256 260 259 257 255 259 264 266 280 278 279 287 282 293 301 302
212 212 221 231 236 223 225 228 230 246 228 248 283 283 276 267 250 239 236 233 225 216 214 217 258 239 246 258 257 258 260 259 257 260 260 261 269 273 276 284 276 288 286
216 211 212 225 229 213 220 221 227 233 274 251 295 286 270 253 247 233 218 217 232 229 210 208 213 208 241 263 251 257 260 261 259 260 261 257 264 263 268 271 283 284 285
221 214 207 219 225 226 227 228 230 253 244 209 226 324 309 325 336 220 201 205 223 236 233 213 211 220 226 232 250 249 258 263 264 264 265 261 260 264 261 265 270 271 281
214 216 219 210 217 214 218 215 209 213 226 275 212 180 304 266 339 283 238 214 213 219 238 231 220 215 220 224 240 245 247 253 262 265 265 261 254 258 265 263 266 265 265
224 217 215 217 223 220 218 216 213 205 177 223 280 230 223 188 234 321 324 267 241 229 226 238 229 223 221 222 233 230 237 250 255 258 263 265 261 255 256 262 264 264 262
214 217 212 213 218 218 230 219 220 208 197 191 198 244 250 243 221 226 280 285 306 259 232 226 226 222 221 225 235 244 250 253 255 259 259 263 264 262 262 262 263 262 257
226 224 220 216 216 217 219 224 224 214 209 212 207 215 217 219 213 216 255 265 252 255 235 232 225 219 219 219 230 235 240 244 249 254 253 256 257 257 260 266 268 269 267
234 229 217 218 222 223 230 228 226 222 215 213 210 224 224 235 231 225 231 265 263 267 267 248 217 220 224 217 227 236 243 250 252 253 255 251 252 253 253 257 265 269 271
237 237 226 216 216 219 225 222 231 233 218 228 230 232 231 234 218 231 242 251 276 272 274 253 242 220 222 221 224 236 235 239 249 255 253 252 248 246 249 252 255 261 266
243 252 255 246 228 225 226 222 226 230 227 230 237 232 232 241 226 232 235 207 244 278 277 248 253 230 231 226 226 233 223 232 242 253 254 252 250 246 248 252 256 259 261
234 238 243 244 246 243 239 229 232 230 229 231 231 229 236 239 233 235 232 222 217 252 271 213 261 266 239 245 242 241 222 221 236 249 252 250 246 249 253 256 258 261 262
228 231 229 230 232 233 234 234 234 228 232 239 235 235 240 229 237 231 224 229 234 233 256 270 270 267 271 260 256 251 231 223 226 240 251 258 255 248 250 260 263 263 264
226 224 226 230 231 231 232 231 235 238 233 236 237 238 246 241 240 237 228 233 234 236 248 267 267 267 246 247 261 236 239 234 229 237 247 255 258 263 268 262 258 260 264
249 245 226 227 228 231 239 240 236 236 238 238 238 239 250 230 247 244 236 241 244 247 246 259 272 250 247 242 261 255 229 229 240 248 255 262 261 259 260 264 256 254 257
259 263 253 246 238 234 237 241 247 253 254 256 253 248 247 239 244 242 236 239 242 235 240 250 261 266 235 241 232 235 260 239 247 247 258 259 261 263 265 264 269 266 254
258 263 267 262 254 245 239 243 251 253 257 268 264 260 258 248 254 254 255 252 242 243 239 238 248 256 239 249 222 230 243 257 241 222 245 248 254 255 256 260 267 271 260
264 262 266 258 255 251 246 251 239 258 269 266 276 277 277 281 273 270 266 262 248 238 256 244 274 262 259 243 232 243 242 250 271 208 236 248 240 247 249 244 241 249 263
246 261 268 277 277 274 273 271 267 259 267 268 270 273 276 276 275 262 267 268 261 256 258 262 263 260 266 264 246 239 224 227 255 256 220 253 215 244 247 250 250 255 255
245 253 264 268 279 285 280 293 292 275 274 268 263 267 261 268 265 273 271 275 260 249 257 263 255 258 258 269 252 256 253 240 265 261 216 267 231 247 254 247 245 246 249
248 257 264 288 287 283 289 319 15 301 288 285 279 282 282 285 283 303 341 310 289 274 271 275 278 258 271 281 277 277 264 250 252 229 198 247 240 250 250 252 242 244 248
224 250 275 265 263 276 292 133 67 322 300 299 308 313 305 344 353 359 334 303 297 281 288 292 285 277 272 271 272 254 252 274 263 255 213 205 208 195 277 249 241 234 231